Opa Locka, FL

6:40 AM EST on February 08, 2016 (GMT -0500)
Opa Locka

Weather History for KOPF - November, 2013

Change the Weather History Date:

Sunday, November 3, 2013

  Actual Average Record
Temperature  
Mean Temperature 76 °F -  
Max Temperature 84 °F 84 °F 89 °F (1973)
Min Temperature 69 °F 68 °F 50 °F (1954)
Cooling Degree Days 10    
Growing Degree Days 26 (Base 50)    
Moisture  
Dew Point 61 °F    
Average Humidity 63    
Maximum Humidity 81    
Minimum Humidity 47    
Precipitation  
Precipitation 0.00 in - - ()
Sea Level Pressure  
Sea Level Pressure 29.96 in    
Wind  
Wind Speed 12 mph (North)    
Max Wind Speed 21 mph    
Max Gust Speed 26 mph    
Visibility 10 miles    
Events      
Averages and records for this station are not official NWS values.
T = Trace of Precipitation, MM = Missing Value Source: NWS Daily Summary

Daily Weather History Graph

Daily Weather History Graph

Search for Another Location

Airport or City:

Trip Planner

Search our weather history database for the weather conditions in past years. The results will help you decide how hot, cold, wet, or windy it might be!

Date:

Astronomy

Nov. 03, 2013 Rise Set
Actual Time 6:31 AM EST 5:37 PM EST
Civil Twilight 6:07 AM EST 6:01 PM EST
Nautical Twilight 5:39 AM EST 6:29 PM EST
Astronomical Twilight 5:12 AM EST 6:56 PM EST
Moon 6:32 AM EST (11/3) 5:54 PM EST (11/3)
Length of Visible Light 11h 54m
Length of Day
11h 06m
New Moon, 0% of the Moon is Illuminated
Nov 3
New Moon
Nov 10
First Quarter
Nov 17
Full
Nov 25
Last Quarter
Dec 2
New

Hourly Weather History & Observations

Time (EST) Temp. Heat Index Dew Point Humidity Pressure Visibility Wind Dir Wind Speed Gust Speed Precip Events Conditions
12:53 AM 73.0 °F - 63.0 °F 71% 29.93 in 10.0 mi NNW 12.7 mph - N/A   Clear
1:53 AM 71.1 °F - 61.0 °F 70% 29.92 in 10.0 mi North 9.2 mph - N/A   Scattered Clouds
1:53 AM 71.1 °F - 62.1 °F 73% 29.91 in 10.0 mi NNW 10.4 mph - N/A   Overcast
2:53 AM 70.0 °F - 64.0 °F 81% 29.91 in 10.0 mi North 6.9 mph - N/A   Overcast
3:53 AM 70.0 °F - 63.0 °F 78% 29.92 in 10.0 mi NNW 11.5 mph - N/A   Overcast
4:53 AM 69.1 °F - 62.1 °F 78% 29.91 in 10.0 mi North 11.5 mph - N/A   Overcast
5:53 AM 69.1 °F - 62.1 °F 78% 29.94 in 10.0 mi NNW 12.7 mph - N/A   Overcast
6:53 AM 69.1 °F - 61.0 °F 75% 29.95 in 10.0 mi North 8.1 mph - N/A   Scattered Clouds
7:53 AM 71.1 °F - 61.0 °F 70% 29.96 in 10.0 mi North 10.4 mph - N/A   Clear
8:53 AM 73.9 °F - 61.0 °F 64% 29.98 in 10.0 mi North 15.0 mph - N/A   Clear
9:53 AM 75.9 °F - 61.0 °F 60% 30.01 in 10.0 mi NNW 15.0 mph 20.7 mph N/A   Clear
10:53 AM 79.0 °F - 62.1 °F 56% 29.99 in 10.0 mi North 12.7 mph 21.9 mph N/A   Clear
11:53 AM 82.0 °F 83.1 °F 63.0 °F 52% 29.98 in 10.0 mi North 12.7 mph 23.0 mph N/A   Scattered Clouds
12:53 PM 82.9 °F 83.3 °F 61.0 °F 47% 29.96 in 10.0 mi ENE 16.1 mph 26.5 mph N/A   Mostly Cloudy
1:53 PM 82.0 °F 83.0 °F 62.1 °F 51% 29.95 in 10.0 mi NE 20.7 mph 26.5 mph N/A   Mostly Cloudy
2:53 PM 82.0 °F 83.0 °F 62.1 °F 51% 29.94 in 10.0 mi NE 15.0 mph 23.0 mph N/A   Mostly Cloudy
3:53 PM 80.1 °F 81.1 °F 61.0 °F 52% 29.95 in 10.0 mi NNE 18.4 mph 24.2 mph N/A   Overcast
4:53 PM 79.0 °F - 60.1 °F 52% 29.96 in 10.0 mi NE 16.1 mph 23.0 mph N/A   Scattered Clouds
5:53 PM 77.0 °F - 60.1 °F 56% 29.97 in 10.0 mi North 10.4 mph - N/A   Mostly Cloudy
6:53 PM 75.0 °F - 57.9 °F 55% 29.99 in 10.0 mi North 9.2 mph - N/A   Scattered Clouds
7:53 PM 73.9 °F - 59.0 °F 59% 30.01 in 10.0 mi North 9.2 mph - N/A   Scattered Clouds
8:53 PM 73.0 °F - 59.0 °F 61% 30.02 in 10.0 mi North 9.2 mph - N/A   Scattered Clouds
9:53 PM 75.9 °F - 61.0 °F 60% 30.03 in 10.0 mi ENE 10.4 mph 17.3 mph N/A   Scattered Clouds
10:53 PM 75.9 °F - 60.1 °F 58% 30.03 in 10.0 mi ENE 11.5 mph - N/A   Clear